Location: Newark
(5.8900°S, 42.6378°W)
Time: 15:51:01
(UTC+00:00)

Vanguard 1 Rocket - Pass Details

Date: 26 October 2019
Orbit: 651 x 4225 km, 34.3° (Epoch: 14 November)

Event Time Altitude Azimuth Distance (km) Brightness Sun altitude
Rises 23:15:26 0° 276° (W) 8,060 13.0 -37.2°
Reaches altitude 10° 23:23:00 10° 266° (W) 6,551 12.4 -39.0°
Maximum altitude 23:38:03 28° 214° (SW) 3,845 10.8 -42.4°
Drops below altitude 10° 23:47:19 10° 159° (SSE) 3,959 10.6 -44.5°
Enters shadow 23:47:54 - 156° (SSE) 4,045 10.7 -44.7°
Sets 23:50:32 0° 146° (SE) 4,521 - -45.3°
